Showing default

COSMOS 1348, 13124

Orbit data source: Space-Track

COSMOS 1348, 13124 is a payload satellite owned by PVO (CIS) in HEO that was launched on Wed, 07 Apr 1982 UTC via an MOLNIYA 8K78M launch vehicle from the Plesetsk Missile And Space Complex (PKMTR). Payload-class satellites include a variety of spacecraft equipped with specific instruments for various scientific and technological missions. These include communications satellites like Starlink; space stations such as the ISS; scientific satellites like the Hubble; Earth observation satellites from companies like Planet Labs, Umbra, and HawkEye 360; GPS; miniature CubeSats for education and research; and military/defense satellites.

Loading next visibility...
Identifier
13124, 1982-029A
Orbit
HEO
Country
Flag of CISCIS
Related business
Manufacturer
NPOL/KOMET
Mission
Spacecraft
Bus & Motor
OKO, Unknown motor
Mass
~1,250 kg wet, ~1,150 kg dry
Launch date (UTC)
1982-04-07 (44 years ago)
Launch vehicle
MOLNIYA 8K78M
Launch site
Plesetsk Missile And Space Complex (PKMTR)
Object type
Payload
Rocket body
Debris
Shape & HBR
Unknown
Radar Cross Section
Large (>1 m²)

Expand to show TLE details & history
Last TLE update: 3 days ago

TLE from 3 days ago
0 COSMOS 1348
1 13124U 82029A   26170.90947455  .00000090  00000-0  00000-0 0  9990
2 13124  71.8081 145.4208 4850061 332.2556 134.6078  2.00395236323447
Epoch: 2026-06-19T21:49Z
TLE epoch observation values (Epoch: 2026-06-19T21:49:38.601Z)
Latitude
43.39472°
Longitude
71.77845°
Altitude
31,264.133 km
Speed
2.487 km/s
True Right ascension
20h 29m 17s
True Declination
43° 21' 44"
Sunlit
Object was in daylight at epoch
Visualization orbit readout
Latitude
Unknown
Longitude
Unknown
Altitude
Unknown
Speed
Unknown
Apparent Right ascension
Unknown
Apparent Declination
Unknown
Sunlit
N/A
Visualization observer readout
Local Sidereal Time
23:20:09
Azimuth
Unknown
Elevation
Unknown
Doppler factor
Unknown
Orbital elements
Apogee altitude
33,084.953 km
Perigee altitude
7,307.498 km
Semi-major axis
26,574.362 km
Eccentricity
0.48501
Inclination
71.8081°
RAAN
145.4208°
Arg. of periapsis
332.2556°
True anomaly
161.41441°
Mean anomaly
134.6078°
Eccentric anomaly
148.94355°
Mean motion
0.50101 °/min
Orbital period
718.54 mins
BSTAR
0
Loading maneuver chart data...
Computing Atmospheric mass density...
Loading historical data...
Loading historical data...
Loading historical data...
Loading historical data...
Loading historical data...
Loading historical data...
Loading historical data...

Documentation

Showing up to 5 results
|